Regional Weather Roundup
Issued by NWS

Home | Current Version | Previous Version | Graphics & Text | Print | Product List | Glossary On
Versions: 1 2 3 4 5 6 7 8 9 10 11 12 13 14 15 16 17 18 19 20 21 22 23 24 25 26 27 28 29 30 31 32 33 34 35 36 37 38 39 40 41 42 43 44 45 46 47 48 49 50
000
ASUS43 KLMK 230310
RWRKY
KENTUCKY REGIONAL WEATHER ROUNDUP
NATIONAL WEATHER SERVICE LOUISVILLE KY
1100 PM EDT SUN APR 22 2018

NOTE "FAIR" INDICATES FEW OR NO CLOUDS BELOW 12,000 FEET
WITH NO SIGNIFICANT WEATHER AND/OR OBSTRUCTIONS TO VISIBILITY.

KYZ001>023-026-027-061>063-070>075-230400-
WESTERN AND SOUTH CENTRAL KENTUCKY

CITY           SKY/WX    TMP DP  RH WIND       PRES   REMARKS
PADUCAH        LGT RAIN  58  56  93 E13       29.94F
HENDERSON      FAIR      58  53  84 NE8       30.03F
OWENSBORO      LGT RAIN  59  53  80 NE6       30.04S
HOPKINSVILLE   NOT AVBL
BOWLING GREEN  LGT RAIN  59  56  89 E9        30.02F
GLASGOW        LGT RAIN  57  53  88 CALM      30.03F
$$

KYZ024-025-028>034-038-045-046-053-230400-
NORTH CENTRAL KENTUCKY

CITY           SKY/WX    TMP DP  RH WIND       PRES   REMARKS
LOUISVILLE/SDF CLOUDY    64  30  27 NE16G24   30.07F
LOUISVILLE/LOU CLOUDY    63  32  31 NE10G22   30.08F
FORT KNOX      NOT AVBL
$$

KYZ035>037-039>044-047>052-055>060-089>105-230400-
NORTHEAST KENTUCKY

CITY           SKY/WX    TMP DP  RH WIND       PRES   REMARKS
LEXINGTON      FAIR      58  31  35 NE12      30.11S
COVINGTON      MOCLDY    60  28  29 E14       30.14S
FRANKFORT      FAIR      61  27  27 E9        30.10S
$$

KYZ054-064>069-076>088-106>120-230400-
SOUTHEAST KENTUCKY

CITY           SKY/WX    TMP DP  RH WIND       PRES   REMARKS
JACKSON        FAIR      62  32  32 NE5       30.14S
LONDON         FAIR      62  46  55 E5        30.09F
SOMERSET       CLOUDY    63  46  55 MISG      30.08F
MIDDLESBORO    FAIR      62  46  55 SE3       30.12F
MONTICELLO     LGT RAIN  63  51  65 E8        30.07F
$$





USA.gov is the U.S. government's official web portal to all federal, state and local government web resources and services.